Simultaneous Nadir Overpasses (SNOs) Predictions

Prediction of SNOs between GOES-16 and LANDSAT-8 Satellite Orbit:

Table of predicted SNOs for the next 14.0 days since TLE Epoch: 2/20/2021
Index Date Time (GOES-16) GOES-16 Lat,Lon LANDSAT-8 Lat,Lon Distance(km) Time Diff (sec)
1 02/21/2021 15:12:38 0.01, -75.20 0.02, -75.39 20.90 80
2 02/23/2021 15:03:06 -0.00, -75.21 -0.62, -72.43 316.65 80
3 02/24/2021 03:24:30 0.00, -75.19 -0.49, -77.62 276.00 80
4 02/26/2021 03:09:38 -0.00, -75.20 0.15, -74.67 62.05 80
5 02/28/2021 02:57:25 0.00, -75.23 0.72, -71.70 400.51 80
6 02/28/2021 15:18:41 -0.00, -75.25 0.33, -76.86 182.67 80
7 03/02/2021 15:09:09 -0.00, -75.28 -0.31, -73.91 156.62 80
8 03/03/2021 03:30:33 0.00, -75.27 -0.79, -79.10 435.08 80
9 03/04/2021 14:56:57 -0.00, -75.31 -0.95, -70.95 496.20 80
10 03/05/2021 03:18:21 0.00, -75.30 -0.15, -76.15 95.54 80
